Location: Marcé
(47.5801°N, 0.3280°W)
Time: 03:29:50
(UTC+01:00)

deb Explorer IX - Pass Details

Date: 03 December 2021
Orbit: 544 x 1082 km, 38.8° (Epoch: 19 January)

Event Time Altitude Azimuth Distance (km) Brightness Sun altitude
Rises 13:14:07 0° 245° (WSW) 2,852 ? 20.1°
Reaches altitude 10° 13:16:48 10° 232° (SW) 1,888 ? 20.0°
Maximum altitude 13:20:16 24° 178° (S) 1,159 ? 19.9°
Drops below altitude 10° 13:23:37 10° 122° (ESE) 1,805 ? 19.9°
Sets 13:26:07 0° 109° (ESE) 2,697 ? 19.8°
